Miami, FL

3:04 AM EDT on August 25, 2016 (GMT -0400)
Miami International

Weather History for KMIA - January, 2014

Change the Weather History Date:

Monday, January 13, 2014

  Actual Average Record
Temperature  
Mean Temperature 73 °F 68 °F  
Max Temperature 81 °F 76 °F 84 °F (1993)
Min Temperature 65 °F 60 °F 32 °F (1981)
Degree Days  
Heating Degree Days 0 2  
Month to date heating degree days 15 26  
Since 1 July heating degree days 17 63  
Cooling Degree Days 8 5  
Month to date cooling degree days 102 65  
Year to date cooling degree days 102 65  
Growing Degree Days 22 (Base 50)    
Moisture  
Dew Point 67 °F    
Average Humidity 79    
Maximum Humidity 90    
Minimum Humidity 67    
Precipitation  
Precipitation 0.00 in 0.05 in 1.57 in (1948)
Month to date precipitation 0.54 0.66  
Year to date precipitation 0.54 0.66  
Snow  
Snow 0.00 in - - ()
Month to date snowfall 0.0  
Since 1 July snowfall 0.0  
Snow Depth 0.00 in    
Sea Level Pressure  
Sea Level Pressure 30.10 in    
Wind  
Wind Speed 6 mph (SE)    
Max Wind Speed 16 mph    
Max Gust Speed 21 mph    
Visibility 10 miles    
Events      
T = Trace of Precipitation, MM = Missing Value Source: NWS Daily Summary

Daily Weather History Graph

Daily Weather History Graph

Search for Another Location

Airport or City:

Trip Planner

Search our weather history database for the weather conditions in past years. The results will help you decide how hot, cold, wet, or windy it might be!

Date:

Astronomy

Jan. 13, 2014 Rise Set
Actual Time 7:09 AM EST 5:50 PM EST
Civil Twilight 6:44 AM EST 6:15 PM EST
Nautical Twilight 6:16 AM EST 6:43 PM EST
Astronomical Twilight 5:48 AM EST 7:11 PM EST
Moon 4:02 PM EST (1/13) 4:58 AM EST (1/13)
Length of Visible Light 11h 30m
Length of Day
10h 40m
Waxing Gibbous, 95% of the Moon is Illuminated
Jan 13
Waxing Gibbous
Jan 15
Full
Jan 24
Last Quarter
Jan 30
New
Feb 6
First Quarter

Hourly Weather History & Observations

Time (EST) Temp. Heat Index Dew Point Humidity Pressure Visibility Wind Dir Wind Speed Gust Speed Precip Events Conditions
12:53 AM 66.0 °F - 61.0 °F 84% 30.14 in 10.0 mi Calm Calm - N/A   Scattered Clouds
1:53 AM 66.0 °F - 62.1 °F 87% 30.13 in 10.0 mi Calm Calm - N/A   Partly Cloudy
2:53 AM 66.0 °F - 63.0 °F 90% 30.12 in 10.0 mi Calm Calm - N/A   Scattered Clouds
3:03 AM 64.4 °F - 62.6 °F 94% 30.12 in 10.0 mi Calm Calm - N/A   Scattered Clouds
3:10 AM 66.2 °F - 62.6 °F 88% 30.12 in 10.0 mi Calm Calm - N/A   Mostly Cloudy
3:53 AM 66.9 °F - 63.0 °F 87% 30.12 in 10.0 mi ESE 3.5 mph - N/A   Mostly Cloudy
4:53 AM 71.1 °F - 66.0 °F 84% 30.11 in 10.0 mi East 8.1 mph - N/A   Partly Cloudy
5:53 AM 70.0 °F - 66.0 °F 87% 30.12 in 10.0 mi East 4.6 mph - N/A   Partly Cloudy
6:53 AM 70.0 °F - 66.0 °F 87% 30.12 in 10.0 mi East 4.6 mph - N/A   Scattered Clouds
7:53 AM 72.0 °F - 66.9 °F 84% 30.14 in 10.0 mi ESE 4.6 mph - N/A   Partly Cloudy
8:53 AM 75.9 °F - 68.0 °F 76% 30.16 in 10.0 mi ESE 6.9 mph - N/A   Partly Cloudy
9:53 AM 78.1 °F - 66.9 °F 68% 30.16 in 10.0 mi ESE 9.2 mph - N/A   Scattered Clouds
10:45 AM 78.8 °F - 68.0 °F 69% 30.15 in 10.0 mi ESE 11.5 mph - N/A   Mostly Cloudy
10:53 AM 80.1 °F 82.7 °F 68.0 °F 67% 30.15 in 10.0 mi ESE 12.7 mph - N/A   Mostly Cloudy
11:53 AM 78.1 °F - 68.0 °F 71% 30.13 in 10.0 mi SE 13.8 mph - N/A   Mostly Cloudy
12:53 PM 80.1 °F 82.9 °F 69.1 °F 69% 30.10 in 10.0 mi ESE 11.5 mph - N/A   Mostly Cloudy
1:53 PM 81.0 °F 84.4 °F 70.0 °F 69% 30.07 in 10.0 mi SE 11.5 mph - N/A   Mostly Cloudy
2:51 PM 78.8 °F - 68.0 °F 69% 30.06 in 10.0 mi ESE 9.2 mph - N/A   Mostly Cloudy
2:53 PM 79.0 °F - 68.0 °F 69% 30.07 in 10.0 mi ESE 9.2 mph - N/A   Mostly Cloudy
3:53 PM 79.0 °F - 69.1 °F 72% 30.06 in 10.0 mi SSE 6.9 mph - N/A   Mostly Cloudy
4:53 PM 78.1 °F - 69.1 °F 74% 30.06 in 10.0 mi SSE 9.2 mph - N/A   Mostly Cloudy
5:53 PM 75.9 °F - 69.1 °F 79% 30.06 in 10.0 mi ESE 5.8 mph - N/A   Mostly Cloudy
6:53 PM 75.0 °F - 70.0 °F 84% 30.06 in 10.0 mi SE 5.8 mph - N/A   Mostly Cloudy
7:53 PM 75.0 °F - 70.0 °F 84% 30.07 in 10.0 mi SE 5.8 mph - N/A   Mostly Cloudy
8:53 PM 73.9 °F - 69.1 °F 85% 30.07 in 10.0 mi SE 6.9 mph - N/A   Scattered Clouds
9:53 PM 73.9 °F - 69.1 °F 85% 30.08 in 10.0 mi SSE 3.5 mph - N/A   Partly Cloudy
10:53 PM 73.0 °F - 69.1 °F 87% 30.07 in 10.0 mi Calm Calm - N/A   Clear
11:53 PM 72.0 °F - 68.0 °F 87% 30.05 in 10.0 mi SSE 3.5 mph - N/A   Clear